📊 Raw Sensor Data
Showing records 36551 to 36575 of 84,898 total
| ID | Distance (ft) | Battery V | Battery A | Int Temp (°F) | Int Humid (%) | Ext Temp (°F) | Solar V | RSSI | SNR | Time Stamp |
|---|---|---|---|---|---|---|---|---|---|---|
| 48360 | 15.4 | 3.94 | 0 | 103 | 49 | 95 | 5.10 | -71 | 8 | 08/05/2025 06:00 PM |
| 48359 | 15.4 | 3.94 | 0 | 104 | 48 | 96 | 5.10 | -71 | 8 | 08/05/2025 05:45 PM |
| 48358 | 15.4 | 3.94 | 0 | 105 | 47 | 95 | 5.10 | -71 | 8 | 08/05/2025 05:30 PM |
| 48357 | 15.4 | 3.93 | 0 | 105 | 47 | 95 | 5.10 | -70 | 8 | 08/05/2025 05:15 PM |
| 48356 | 15.4 | 3.95 | 0 | 104 | 46 | 95 | 5.10 | -71 | 8 | 08/05/2025 05:00 PM |
| 48355 | 15.4 | 3.93 | 0 | 104 | 45 | 95 | 5.10 | -70 | 8 | 08/05/2025 04:45 PM |
| 48354 | 15.4 | 3.93 | 0 | 104 | 45 | 96 | 5.10 | -71 | 8 | 08/05/2025 04:30 PM |
| 48353 | 15.4 | 3.93 | 0 | 103 | 45 | 93 | 5.10 | -70 | 8 | 08/05/2025 04:15 PM |
| 48352 | 15.4 | 3.93 | 0 | 103 | 44 | 94 | 5.10 | -69 | 7 | 08/05/2025 04:00 PM |
| 48351 | 15.4 | 3.93 | 0 | 103 | 43 | 93 | 5.10 | -72 | 7 | 08/05/2025 03:45 PM |
| 48350 | 15.4 | 3.93 | 0 | 102 | 43 | 91 | 5.10 | -69 | 8 | 08/05/2025 03:30 PM |
| 48349 | 15.4 | 3.93 | 0 | 102 | 42 | 92 | 5.10 | -72 | 7 | 08/05/2025 03:15 PM |
| 48348 | 15.4 | 3.93 | 0 | 101 | 41 | 92 | 5.10 | -69 | 8 | 08/05/2025 03:00 PM |
| 48347 | 15.4 | 3.96 | 0 | 99 | 41 | 91 | 5.10 | -71 | 8 | 08/05/2025 02:45 PM |
| 48346 | 15.4 | 3.93 | 0 | 98 | 41 | 88 | 5.10 | -70 | 8 | 08/05/2025 02:30 PM |
| 48345 | 15.4 | 3.93 | 0 | 97 | 41 | 87 | 5.20 | -70 | 8 | 08/05/2025 02:15 PM |
| 48344 | 15.3 | 3.93 | 0 | 94 | 41 | 86 | 5.10 | -72 | 7 | 08/05/2025 01:45 PM |
| 48343 | 15.3 | 3.93 | 0 | 92 | 41 | 84 | 5.10 | -69 | 7 | 08/05/2025 01:30 PM |
| 48342 | 15.3 | 3.93 | 0 | 90 | 42 | 83 | 5.10 | -70 | 8 | 08/05/2025 01:15 PM |
| 48341 | 15.4 | 3.93 | 0 | 88 | 42 | 82 | 5.10 | -69 | 8 | 08/05/2025 01:00 PM |
| 48340 | 15.4 | 3.93 | 0 | 87 | 42 | 80 | 5.10 | -70 | 8 | 08/05/2025 12:45 PM |
| 48339 | 15.4 | 3.93 | 0 | 87 | 42 | 79 | 5.10 | -69 | 7 | 08/05/2025 12:30 PM |
| 48338 | 15.4 | 4.11 | 0 | 82 | 43 | 78 | 5.10 | -70 | 8 | 08/05/2025 12:00 PM |
| 48337 | 15.4 | 3.93 | 0 | 82 | 43 | 81 | 5.10 | -69 | 8 | 08/05/2025 11:45 AM |
| 48336 | 15.4 | 3.93 | 0 | 81 | 43 | 79 | 5.10 | -70 | 8 | 08/05/2025 11:30 AM |